This demonstration page uses our WeatherBlox Daily Observations layout. Learn more.

Left ArrowRight Arrow

36.17497, -115.13722

Hourly Observations for March 28, 2015

Temp ( °F °C ) Dew Point ( °F °C ) Humidity (%) Winds ( mph kmh ) Pressure ( in mb ) Visibility ( mi km ) Precip ( " mm )
12:53 am 00:53 Clear 65 18.3 29 -1.7 26 26 NNW 6 9 30.04 1017 10 16 N/A
1:53 am 01:53 Clear 63 17.2 28 -2.2 27 27 NW 3 6 30.05 1018 10 16 N/A
2:53 am 02:53 Clear 62 16.7 28 -2.2 28 28 NW 6 9 30.04 1017 10 16 N/A
3:53 am 03:53 Clear 60 15.6 25 -3.9 26 26 NW 6 9 30.03 1017 10 16 N/A
4:53 am 04:53 Clear 59 15 26 -3.3 28 28 NW 6 9 30.04 1017 10 16 N/A
5:53 am 05:53 Clear 58 14.4 24 -4.4 27 27 NW 6 9 30.05 1018 10 16 N/A
6:53 am 06:53 Sunny 59 15 25 -3.9 27 27 NNW 5 7 30.07 1018 10 16 N/A
7:53 am 07:53 Sunny 63 17.2 26 -3.3 25 25 NW 3 6 30.08 1019 10 16 N/A
8:53 am 08:53 Sunny 70 21.1 23 -5 17 17 N N/A 30.10 1019 10 16 N/A
9:53 am 09:53 Sunny 73 22.8 21 -6.1 14 14 E 5 7 30.10 1019 10 16 N/A
10:53 am 10:53 Sunny 76 24.4 22 -5.6 13 13 VRB 6 9 30.09 1019 10 16 N/A
11:53 am 11:53 Sunny 79 26.1 22 -5.6 12 12 VRB 7 11 30.08 1019 10 16 N/A
12:53 pm 12:53 Sunny 82 27.8 22 -5.6 11 11 VRB 6 9 30.05 1018 10 16 N/A
1:53 pm 13:53 Sunny 85 29.4 21 -6.1 9 9 ESE 5 7 30.01 1016 10 16 N/A
2:53 pm 14:53 Sunny 88 31.1 15 -9.4 7 7 SSE 8 13 29.97 1015 10 16 N/A
3:53 pm 15:53 Sunny 90 32.2 13 -10.6 6 6 SSW 8 13 29.95 1014 10 16 N/A
4:53 pm 16:53 Sunny 90 32.2 10 -12.2 5 5 WSW 12 19 29.94 1014 10 16 N/A
5:53 pm 17:53 Sunny 88 31.1 5 -15 4 4 SW 10 17 29.94 1014 10 16 N/A
6:53 pm 18:53 Sunny 86 30 8 -13.3 5 5 WSW 8 13 29.95 1014 10 16 N/A
7:53 pm 19:53 Clear 83 28.3 8 -13.3 6 6 SW 10 17 29.96 1015 10 16 N/A
8:53 pm 20:53 Clear 80 26.7 12 -11.1 7 7 SW 8 13 29.97 1015 10 16 N/A
9:53 pm 21:53 Clear 73 22.8 16 -8.9 11 11 NW 5 7 29.99 1016 10 16 N/A
10:53 pm 22:53 Clear 71 21.7 16 -8.9 12 12 NNW 6 9 30.01 1016 10 16 N/A
11:53 pm 23:53 Clear 70 21.1 16 -8.9 12 12 W 5 7 30.01 1016 10 16 N/A

Powered by AerisWeather